Tracking 19146 objects as of 24-Apr-2018
HD Live streaming from Space Station
objects crossing your sky now

FENGYUN 1C DEB

Track FENGYUN 1C DEB now!
10-day predictions


NORAD ID: 30543
Int'l Code: 1999-025AKH
Perigee: 840.7 km
Apogee: 947.1 km
Inclination: 99.1 °
Period: 102.7 minutes
Semi major axis: 7264 km
RCS: 0.0209 m2 (small)
Launch date: May 10, 1999
Source: People's Republic of China (PRC)
Launch site: Taiyaun Space Center, China (TSC)

Note: This is SATELLITE DEBRIS
aabbcc
Your satellite tracking list
Your tracking list is empty




NASA's NSSDC Master Catalog

Two Line Element Set (TLE):
1 30543U 99025AKH 18114.01485970  .00000263  00000-0  19732-3 0  9995
2 30543  99.0588 140.4274 0073240 230.0051 159.5369 14.02041861574938
Source of the keplerian elements: AFSPC